STARLINK-34568, 64717

Orbit data source: Space-Track

STARLINK-34568, 64717 is a payload satellite owned by SpaceX/Seattle (US) in LEO that was launched on Sat, 28 Jun 2025 UTC via an FALCON 9 launch vehicle from the Air Force Western Test Range (AFWTR). Payload-class satellites include a variety of spacecraft equipped with specific instruments for various scientific and technological missions. These include communications satellites like Starlink; space stations such as the ISS; scientific satellites like the Hubble; Earth observation satellites from companies like Planet Labs, Umbra, and HawkEye 360; GPS; miniature CubeSats for education and research; and military/defense satellites.

Loading next visibility...
Identifier
64717, 2025-142X
Orbit
LEO
Country
Flag of USUS
Related business
Manufacturer
SpaceX/Seattle
Mission
Operational Commercial Communications
Bus & Motor
STARLINK V2MO, Unknown motor
Mass
575 kg wet, ~530 kg dry
Launch date (UTC)
2025-06-28 (1 year ago)
Launch vehicle
FALCON 9
Launch site
Air Force Western Test Range (AFWTR)
Object type
Payload
Rocket body
Debris
Shape & HBR
Box + 1 Pan, 17.7 m
Radar Cross Section
41.120 m², Large (>1 m²)

Expand to show TLE details & history
Last TLE update: 13 hours ago

TLE from 13 hours ago
0 STARLINK-34568
1 64717U 25142X   26264.17864679  .00019745  00000-0  67135-3 0  9998
2 64717  70.0004 179.1498 0003226 269.3001  90.7805 15.30448696 68831
Epoch: 2026-09-21T04:17Z
TLE epoch observation values (Epoch: 2026-09-21T04:17:15.082Z)
Latitude
-0.00003°
Longitude
114.77475°
Altitude
476.962 km
Speed
7.628 km/s
True Right ascension
11h 56m 35s
True Declination
0° 00' 00"
Sunlit
Object was in daylight at epoch
Visualization orbit readout
Latitude
Unknown
Longitude
Unknown
Altitude
Unknown
Speed
Unknown
Apparent Right ascension
Unknown
Apparent Declination
Unknown
Sunlit
N/A
Visualization observer readout
Local Sidereal Time
09:57:21
Azimuth
Unknown
Elevation
Unknown
Doppler factor
Unknown
Orbital elements
Apogee altitude
474.601 km
Perigee altitude
470.181 km
Semi-major axis
6,850.528 km
Eccentricity
0.00032
Inclination
70.0004°
RAAN
179.1498°
Arg. of periapsis
269.3001°
True anomaly
90.81746°
Mean anomaly
90.7805°
Eccentric anomaly
90.79898°
Mean motion
3.82787 °/min
Orbital period
94.05 mins
BSTAR
0.00067135
Loading maneuver chart data...
Computing Atmospheric mass density...
Loading historical data...
Loading historical data...
Loading historical data...
Loading historical data...
Loading historical data...
Loading historical data...
Loading historical data...

Documentation

Showing up to 5 results
|